Time,TemperatureF,DewpointF,PressureIn,WindDirection,WindDirectionDegrees,WindSpeedMPH,WindSpeedGustMPH,Humidity,HourlyPrecipIn,Conditions,Clouds,dailyrainin,SoftwareType,DateUTC
2013-01-02 00:32:00,26.0,20.0,-100.00,WNW,300,12.0,22.0,77,-99.99,,,-99.99,,2013-01-02 07:32:00,
2013-01-02 00:42:00,26.0,20.0,-100.00,WNW,300,12.0,22.0,77,-99.99,,,-99.99,,2013-01-02 07:42:00,
2013-01-02 00:52:00,26.0,20.0,-100.00,WNW,300,12.0,22.0,77,-99.99,,,-99.99,,2013-01-02 07:52:00,
2013-01-02 01:32:00,26.0,19.0,-100.00,NW,310,10.0,20.0,74,-99.99,,,-99.99,,2013-01-02 08:32:00,
2013-01-02 01:42:00,26.0,19.0,-100.00,NW,310,10.0,20.0,74,-99.99,,,-99.99,,2013-01-02 08:42:00,
2013-01-02 01:52:00,26.0,19.0,-100.00,NW,310,10.0,20.0,74,-99.99,,,-99.99,,2013-01-02 08:52:00,
2013-01-02 02:32:00,27.0,20.0,-100.00,West,280,12.0,-999.0,74,-99.99,,,-99.99,,2013-01-02 09:32:00,
2013-01-02 02:43:00,27.0,20.0,-100.00,West,280,12.0,-999.0,74,-99.99,,,-99.99,,2013-01-02 09:43:00,
2013-01-02 02:52:00,27.0,20.0,-100.00,West,280,12.0,-999.0,74,-99.99,,,-99.99,,2013-01-02 09:52:00,
2013-01-02 03:32:00,24.0,16.0,-100.00,WNW,290,12.0,24.0,70,-99.99,,,-99.99,,2013-01-02 10:32:00,
2013-01-02 03:42:00,24.0,16.0,-100.00,WNW,290,12.0,24.0,70,-99.99,,,-99.99,,2013-01-02 10:42:00,
2013-01-02 03:52:00,24.0,16.0,-100.00,WNW,290,12.0,24.0,70,-99.99,,,-99.99,,2013-01-02 10:52:00,
2013-01-02 04:32:00,23.0,15.0,-100.00,West,270,13.0,25.0,71,-99.99,,,-99.99,,2013-01-02 11:32:00,
2013-01-02 04:42:00,23.0,15.0,-100.00,West,270,13.0,25.0,71,-99.99,,,-99.99,,2013-01-02 11:42:00,
2013-01-02 04:52:00,23.0,15.0,-100.00,West,270,13.0,25.0,71,-99.99,,,-99.99,,2013-01-02 11:52:00,
2013-01-02 06:32:00,22.0,14.0,-100.00,NW,310,10.0,-999.0,71,-99.99,,,-99.99,,2013-01-02 13:32:00,
2013-01-02 06:43:00,22.0,14.0,-100.00,NW,310,10.0,-999.0,71,-99.99,,,-99.99,,2013-01-02 13:43:00,
2013-01-02 06:52:00,22.0,14.0,-100.00,NW,310,10.0,-999.0,71,-99.99,,,-99.99,,2013-01-02 13:52:00,
2013-01-02 07:33:00,22.0,14.0,-100.00,West,280,10.0,-999.0,71,-99.99,,,-99.99,,2013-01-02 14:33:00,
2013-01-02 07:43:00,22.0,14.0,-100.00,West,280,10.0,-999.0,71,-99.99,,,-99.99,,2013-01-02 14:43:00,
2013-01-02 07:53:00,22.0,14.0,-100.00,West,280,10.0,-999.0,71,-99.99,,,-99.99,,2013-01-02 14:53:00,
2013-01-02 08:33:00,23.0,16.0,-100.00,West,280,12.0,22.0,74,-99.99,,,-99.99,,2013-01-02 15:33:00,
2013-01-02 08:43:00,23.0,16.0,-100.00,West,280,12.0,22.0,74,-99.99,,,-99.99,,2013-01-02 15:43:00,
2013-01-02 08:53:00,23.0,16.0,-100.00,West,280,12.0,22.0,74,-99.99,,,-99.99,,2013-01-02 15:53:00,
2013-01-02 09:33:00,23.0,17.0,-100.00,WNW,290,12.0,-999.0,77,-99.99,,,-99.99,,2013-01-02 16:33:00,
2013-01-02 09:43:00,23.0,17.0,-100.00,WNW,290,12.0,-999.0,77,-99.99,,,-99.99,,2013-01-02 16:43:00,
2013-01-02 09:53:00,23.0,17.0,-100.00,WNW,290,12.0,-999.0,77,-99.99,,,-99.99,,2013-01-02 16:53:00,
2013-01-02 11:33:00,24.0,18.0,-100.00,NW,310,12.0,22.0,77,-99.99,,,-99.99,,2013-01-02 18:33:00,
2013-01-02 11:43:00,24.0,18.0,-100.00,NW,310,12.0,22.0,77,-99.99,,,-99.99,,2013-01-02 18:43:00,
2013-01-02 11:53:00,24.0,18.0,-100.00,NW,310,12.0,22.0,77,-99.99,,,-99.99,,2013-01-02 18:53:00,
2013-01-02 12:33:00,24.0,18.0,-100.00,WNW,300,10.0,20.0,77,-99.99,,,-99.99,,2013-01-02 19:33:00,
2013-01-02 12:43:00,24.0,18.0,-100.00,WNW,300,10.0,20.0,77,-99.99,,,-99.99,,2013-01-02 19:43:00,
2013-01-02 12:52:00,24.0,18.0,-100.00,WNW,300,10.0,20.0,77,-99.99,,,-99.99,,2013-01-02 19:52:00,
2013-01-02 13:33:00,25.0,19.0,-100.00,NW,320,12.0,20.0,77,-99.99,,,-99.99,,2013-01-02 20:33:00,
2013-01-02 13:42:00,25.0,19.0,-100.00,NW,320,12.0,20.0,77,-99.99,,,-99.99,,2013-01-02 20:42:00,
2013-01-02 13:53:00,25.0,19.0,-100.00,NW,320,12.0,20.0,77,-99.99,,,-99.99,,2013-01-02 20:53:00,
2013-01-02 14:33:00,25.0,19.0,-100.00,WNW,290,7.0,-999.0,77,-99.99,,,-99.99,,2013-01-02 21:33:00,
2013-01-02 14:43:00,25.0,19.0,-100.00,WNW,290,7.0,-999.0,77,-99.99,,,-99.99,,2013-01-02 21:43:00,
2013-01-02 14:52:00,25.0,19.0,-100.00,WNW,290,7.0,-999.0,77,-99.99,,,-99.99,,2013-01-02 21:52:00,
2013-01-02 15:32:00,24.0,19.0,-100.00,WNW,290,7.0,15.0,80,-99.99,,,-99.99,,2013-01-02 22:32:00,
2013-01-02 15:42:00,24.0,19.0,-100.00,WNW,290,7.0,15.0,80,-99.99,,,-99.99,,2013-01-02 22:42:00,
2013-01-02 15:52:00,24.0,19.0,-100.00,WNW,290,7.0,15.0,80,-99.99,,,-99.99,,2013-01-02 22:52:00,
2013-01-02 16:33:00,24.0,19.0,-100.00,WNW,300,7.0,-999.0,80,-99.99,,,-99.99,,2013-01-02 23:33:00,
2013-01-02 16:42:00,24.0,19.0,-100.00,WNW,300,7.0,-999.0,80,-99.99,,,-99.99,,2013-01-02 23:42:00,
2013-01-02 16:52:00,24.0,19.0,-100.00,WNW,300,7.0,-999.0,80,-99.99,,,-99.99,,2013-01-02 23:52:00,
2013-01-02 17:38:00,23.0,18.0,-100.00,WNW,290,8.0,-999.0,80,-99.99,,,-99.99,,2013-01-03 00:38:00,
2013-01-02 17:52:00,23.0,18.0,-100.00,WNW,290,8.0,-999.0,80,-99.99,,,-99.99,,2013-01-03 00:52:00,
2013-01-02 18:32:00,22.0,17.0,-100.00,NW,320,5.0,-999.0,81,-99.99,,,-99.99,,2013-01-03 01:32:00,
2013-01-02 18:42:00,22.0,17.0,-100.00,NW,320,5.0,-999.0,81,-99.99,,,-99.99,,2013-01-03 01:42:00,
2013-01-02 18:52:00,22.0,17.0,-100.00,NW,320,5.0,-999.0,81,-99.99,,,-99.99,,2013-01-03 01:52:00,
2013-01-02 19:33:00,16.0,13.0,-100.00,West,270,5.0,-999.0,87,-99.99,,,-99.99,,2013-01-03 02:33:00,
2013-01-02 19:42:00,16.0,13.0,-100.00,West,270,5.0,-999.0,87,-99.99,,,-99.99,,2013-01-03 02:42:00,
2013-01-02 19:52:00,16.0,13.0,-100.00,West,270,5.0,-999.0,87,-99.99,,,-99.99,,2013-01-03 02:52:00,
2013-01-02 20:46:00,16.0,14.0,-100.00,West,280,8.0,-999.0,91,-99.99,,,-99.99,,2013-01-03 03:46:00,
2013-01-02 20:52:00,16.0,14.0,-100.00,West,280,8.0,-999.0,91,-99.99,,,-99.99,,2013-01-03 03:52:00,
2013-01-02 21:32:00,16.0,10.0,-100.00,NW,310,6.0,-999.0,76,-99.99,,,-99.99,,2013-01-03 04:32:00,
2013-01-02 21:42:00,16.0,10.0,-100.00,NW,310,6.0,-999.0,76,-99.99,,,-99.99,,2013-01-03 04:42:00,
2013-01-02 21:52:00,16.0,10.0,-100.00,NW,310,6.0,-999.0,76,-99.99,,,-99.99,,2013-01-03 04:52:00,
2013-01-02 22:33:00,15.0,10.0,-100.00,SW,230,5.0,-999.0,79,-99.99,,,-99.99,,2013-01-03 05:33:00,
2013-01-02 22:42:00,15.0,10.0,-100.00,SW,230,5.0,-999.0,79,-99.99,,,-99.99,,2013-01-03 05:42:00,
2013-01-02 22:52:00,15.0,10.0,-100.00,SW,230,5.0,-999.0,79,-99.99,,,-99.99,,2013-01-03 05:52:00,
2013-01-02 23:32:00,15.0,13.0,-100.00,West,260,6.0,-999.0,90,-99.99,,,-99.99,,2013-01-03 06:32:00,
2013-01-02 23:42:00,15.0,13.0,-100.00,West,260,6.0,-999.0,90,-99.99,,,-99.99,,2013-01-03 06:42:00,
2013-01-02 23:52:00,15.0,13.0,-100.00,West,260,6.0,-999.0,90,-99.99,,,-99.99,,2013-01-03 06:52:00,